Location: Unspecified
(0.0000°N, 0.0000°E)
Time: 23:51:45
(UTC+00:00)

Vanguard 2 - Pass Details

Date: 07 October 2020
Orbit: 554 x 2937 km, 32.9° (Epoch: 28 October)

Event Time Altitude Azimuth Distance (km) Brightness Sun altitude
Rises 20:11:03 0° 222° (SW) 5,895 12.6 -35.6°
Reaches altitude 10° 20:14:53 10° 215° (SW) 5,148 12.1 -36.6°
Maximum altitude 20:30:11 47° 146° (SE) 3,559 10.5 -40.4°
Enters shadow 20:30:42 47° 142° (SE) 3,567 10.5 -40.5°
Drops below altitude 10° 20:46:33 10° 78° (ENE) 5,527 - -44.4°
Sets 20:50:47 0° 72° (ENE) 6,347 - -45.5°
